TimePDT,TemperatureF,Dew PointF,Humidity,Sea Level PressureIn,VisibilityMPH,Wind Direction,Wind SpeedMPH,Gust SpeedMPH,PrecipitationIn,Events,Conditions,WindDirDegrees,DateUTC
12:53 AM,34.0,19.0,54,30.26,10.0,Calm,Calm,-,N/A,,Clear,0,2012-10-05 07:53:00
1:53 AM,27.0,18.0,69,30.28,10.0,Calm,Calm,-,N/A,,Clear,0,2012-10-05 08:53:00
2:53 AM,27.0,19.9,75,30.28,10.0,Calm,Calm,-,N/A,,Clear,0,2012-10-05 09:53:00
3:53 AM,26.1,18.0,71,30.30,10.0,SSE,3.5,-,N/A,,Clear,160,2012-10-05 10:53:00
4:53 AM,19.9,16.0,85,30.32,10.0,Calm,Calm,-,N/A,,Clear,0,2012-10-05 11:53:00
5:53 AM,23.0,16.0,74,30.32,10.0,Calm,Calm,-,N/A,,Clear,0,2012-10-05 12:53:00
6:53 AM,19.0,16.0,88,30.36,10.0,Calm,Calm,-,N/A,,Clear,0,2012-10-05 13:53:00
7:53 AM,23.0,18.0,81,30.36,10.0,Calm,Calm,-,N/A,,Clear,0,2012-10-05 14:53:00
8:53 AM,33.8,21.2,60,30.30,10.0,Calm,Calm,-,N/A,,Unknown,0,2012-10-05 15:53:00
9:53 AM,41.0,21.9,47,30.35,10.0,Calm,Calm,-,N/A,,Clear,0,2012-10-05 16:53:00
10:53 AM,45.0,19.0,36,30.34,10.0,Calm,Calm,-,N/A,,Clear,0,2012-10-05 17:53:00
11:53 AM,48.9,21.0,33,30.33,10.0,Variable,4.6,-,N/A,,Clear,0,2012-10-05 18:53:00
12:53 PM,52.0,19.9,28,30.32,10.0,Variable,6.9,-,N/A,,Clear,0,2012-10-05 19:53:00
1:53 PM,55.0,21.0,27,30.29,10.0,WSW,5.8,-,N/A,,Clear,240,2012-10-05 20:53:00
2:53 PM,57.0,18.0,22,30.27,3.0,WNW,5.8,-,N/A,,Haze,300,2012-10-05 21:53:00
3:53 PM,57.9,19.9,23,30.26,10.0,WNW,8.1,-,N/A,,Clear,300,2012-10-05 22:53:00
4:53 PM,57.0,21.0,25,30.26,10.0,NNW,12.7,-,N/A,,Clear,330,2012-10-05 23:53:00
5:53 PM,52.0,19.0,27,30.27,10.0,NNW,9.2,-,N/A,,Clear,330,2012-10-06 00:53:00
6:53 PM,44.1,18.0,35,30.30,10.0,West,4.6,-,N/A,,Clear,270,2012-10-06 01:53:00
7:53 PM,36.0,19.0,50,30.33,10.0,Calm,Calm,-,N/A,,Clear,0,2012-10-06 02:53:00
8:53 PM,34.0,19.0,54,30.32,10.0,Calm,Calm,-,N/A,,Clear,0,2012-10-06 03:53:00
9:53 PM,28.0,16.0,61,30.32,10.0,Calm,Calm,-,N/A,,Clear,0,2012-10-06 04:53:00
10:53 PM,30.9,19.0,61,30.32,10.0,Calm,Calm,-,N/A,,Clear,0,2012-10-06 05:53:00
11:53 PM,28.9,19.0,67,30.31,10.0,South,6.9,-,N/A,,Clear,180,2012-10-06 06:53:00